sat.trackr.live / text

‹ back to catalog

STARLINK-3201

NORAD 49771 · 2021-115AZ

PAYLOAD ACTIVE UNKNOWN

§ Identity

Operator
Country
US
Launch date
2021-12-02
Launch site
AFETR
Launch vehicle
Mass (kg)
RCS (m²)

Purposes: comms

External: N2YO · Heavens-Above · Gunter

§ Orbital elements

Epoch: 2026-09-19T22:01:17.980608Z

Period
93.85 min
Inclination
53.1615°
Eccentricity
0.0000921
Mean motion
15.34341109 rev/d
Perigee alt
462.2 km
Apogee alt
463.5 km
Semi-major
6,841.0 km
B*
2.9285e-4
RAAN
332.1618°
Arg perigee
88.0100°
Mean anomaly
272.1008°
Rev number
26,520

§ Raw data

STARLINK-32011 49771U 21115AZ  26262.91756922  .00009513  00000+0  29285-3 0  99932 49771  53.1615 332.1618 0000921  88.0100 272.1008 15.34341109265200

JSON: /api/v1/satellites/49771 · /tle

For live sub-satellite position, see the globe view (requires WebGL).

§ Visibility from observer

Set your observer location to see the next 7 days of passes ≥ 10°. The values pass through the URL so the page stays shareable.

No JS? Fill the form by hand. The geolocation button needs JavaScript.